Terminal Aerodrome Forecast
Issued by NWS Aberdeen, SD

Home | Current Version | Previous Version | Text Only | Print | Product List | Glossary On
Versions: 1 2 3 4 5 6 7 8 9 10 11 12 13 14 15 16 17 18 19 20 21 22 23 24 25 26 27 28 29 30 31 32 33 34 35 36 37 38 39 40 41 42 43 44 45 46 47 48 49 50
000
FTAK31 PAFA 021730
TAFABR
TAF
PABR 021730Z 0218/0318 12005KT P6SM SCT003 OVC070
     FM022100 10005KT P6SM OVC015
     FM030300 10010KT P6SM OVC015
     FM030800 10015KT P6SM SCT007 OVC010=

USA.gov is the U.S. government's official web portal to all federal, state and local government web resources and services.